COSMOS 970 DEB, 64988

Orbit data source: Space-Track

COSMOS 970 DEB, 64988 is space debris in LEO originally from a launch on Wed, 21 Dec 1977 UTC launched from the Tyuratam Missile And Space Complex (TTMTR). Debris objects in space refer to the collection of defunct objects orbiting the Earth. Examples of debris include non-operational satellites, rocket bodies, and fragments generated from explosions, collisions, or faulty payload assembly.

Loading next visibility...
Identifier
64988, 1977-121CZ
Orbit
LEO
Country
Flag of CISCIS
Related business
Manufacturer
Unknown
Mission
Spacecraft
Bus & Motor
Unknown
Mass
Unknown
Launch date (UTC)
1977-12-21 (48 years ago)
Launch vehicle
Unknown
Launch site
Tyuratam Missile And Space Complex (TTMTR)
Object type
Payload
Rocket body
Debris
Shape & HBR
Unknown shape, 0.1 m
Radar Cross Section
Small (<0.1 m²)

Expand to show TLE details & history
Last TLE update: 11 hours ago

TLE from 11 hours ago
0 COSMOS 970 DEB
1 64988U 77121CZ  26171.39355198  .00000173  00000-0  29240-3 0  9994
2 64988  65.8561  43.8764 0105027 149.6307  28.2197 13.66420304139297
Epoch: 2026-06-20T09:26Z
TLE epoch observation values (Epoch: 2026-06-20T09:26:42.891Z)
Latitude
1.34723°
Longitude
172.98802°
Altitude
946.048 km
Speed
7.413 km/s
True Right ascension
14h 53m 06s
True Declination
1° 20' 22"
Sunlit
Object was in full shadow at epoch
Visualization orbit readout
Latitude
Unknown
Longitude
Unknown
Altitude
Unknown
Speed
Unknown
Apparent Right ascension
Unknown
Apparent Declination
Unknown
Sunlit
N/A
Visualization observer readout
Local Sidereal Time
07:16:19
Azimuth
Unknown
Elevation
Unknown
Doppler factor
Unknown
Orbital elements
Apogee altitude
1,088.577 km
Perigee altitude
933.365 km
Semi-major axis
7,389.108 km
Eccentricity
0.0105
Inclination
65.8561°
RAAN
43.8764°
Arg. of periapsis
149.6307°
True anomaly
28.79544°
Mean anomaly
28.2197°
Eccentric anomaly
28.5069°
Mean motion
3.41708 °/min
Orbital period
105.35 mins
BSTAR
0.0002924
Loading maneuver chart data...
Computing Atmospheric mass density...
Loading historical data...
Loading historical data...
Loading historical data...
Loading historical data...
Loading historical data...
Loading historical data...
Loading historical data...

Documentation

Showing up to 5 results
|